Regional Weather Roundup
Issued by NWS

Home | Current Version | Previous Version | Text Only | Print | Product List | Glossary On
Versions: 1 2 3 4 5 6 7 8 9 10 11 12 13 14 15 16 17 18 19 20 21 22 23 24 25 26 27 28 29 30 31 32 33 34 35 36 37 38 39 40 41 42 43 44 45 46 47 48 49 50
606
ASUS45 KREV 221110
RWRNV
NEVADA REGIONAL WEATHER ROUNDUP
NATIONAL WEATHER SERVICE RENO NV
300 AM PST WED NOV 22 2017

NOTE: "FAIR" INDICATES FEW OR NO CLOUDS BELOW 12,000 FEET WITH NO
SIGNIFICANT WEATHER AND/OR OBSTRUCTIONS TO VISIBILITY.

NVZ001-003-004-221200-
WESTERN NEVADA

CITY           SKY/WX    TMP DP  RH WIND       PRES   REMARKS
RENO           CLEAR     43  39  86 CALM      30.34F
CARSON CITY    FAIR      39  37  93 CALM      30.37S
MINDEN         FAIR      32  32 100 E3        30.36S
SLIDE MTN        N/A     41  36  81 SW26        N/A
PYRAMID LAKE     N/A     50 N/A N/A SW3         N/A
FALLON         CLEAR     40  35  83 CALM      30.32S
LOVELOCK       PTCLDY    32  27  81 SE6       30.33R
HAWTHORNE      CLEAR     45  36  70 SW3       30.33S
$$

NVZ002-CAZ072-073-221200-
NORTHERN AND CENTRAL SIERRA

CITY           SKY/WX    TMP DP  RH WIND       PRES   REMARKS
S. LAKE TAHOE  FOG       33  31  92 S3        30.41F VSB 3/4
TRUCKEE        FOG       32  32 100 CALM      30.41S VSB 1/4
SQUAW VLY 8000   N/A     46  36  66 S7          N/A
SUSANVILLE     CLEAR     39  37  93 W5        30.33R
BLUE CANYON    CLEAR     57  33  40 E5        30.35F
MAMMOTH LAKES  FAIR      32  30  91 NW3       30.49S
$$

NVZ030-031-036-221200-
NORTHERN NEVADA

CITY           SKY/WX    TMP DP  RH WIND       PRES   REMARKS
ELKO           CLEAR     36  33  89 NE3       30.40S
WINNEMUCCA     CLEAR     39  34  82 NE3       30.33S
WENDOVER       PTCLDY    38  31  76 SW3       30.39S
$$

NVZ035-037-221200-
CENTRAL NEVADA

CITY           SKY/WX    TMP DP  RH WIND       PRES   REMARKS
ELY            CLEAR     31  27  85 S14       30.46S
EUREKA           N/A     38  32  79 S9        30.43S
$$

NVZ013-014-221200-
SOUTH CENTRAL NEVADA

CITY           SKY/WX    TMP DP  RH WIND       PRES   REMARKS
TONOPAH        PTCLDY    40  30  67 N9        30.42S
$$

NVZ017-020-022-221200-
SOUTHERN NEVADA

CITY           SKY/WX    TMP DP  RH WIND       PRES   REMARKS
LAS VEGAS      MOCLDY    55  31  39 S8        30.24S
N. LAS VEGAS   CLEAR     54  33  45 W7        30.24S
NELLIS AFB     CLEAR     51  17  26 CALM      30.24S
HENDERSON      CLEAR     53  26  35 S8        30.27S
MERCURY        CLEAR     55  34  45 E6        30.28S
$$




USA.gov is the U.S. government's official web portal to all federal, state and local government web resources and services.